Satellite: HRBE Catalog number: 37855 Epoch time: 13009.92397474 Element set: 389 Inclination: 101.7101 deg RA of node: 150.9164 deg Eccentricity: 0.0241046 Arg of perigee: 119.9928 deg Mean anomaly: 242.5428 deg Mean motion: 14.82420885 rev/day Decay rate: 7.105e-05 rev/day^2 Epoch rev: 6499 Checksum: 317
Satellite: RS-39 Catalog number: 38051 Epoch time: 13010.89314521 Element set: 65 Inclination: 051.6362 deg RA of node: 247.1701 deg Eccentricity: 0.0013492 Arg of perigee: 066.0148 deg Mean anomaly: 044.4713 deg Mean motion: 15.28502012 rev/day Decay rate: 1.0939e-04 rev/day^2 Epoch rev: 5369 Checksum: 269
Satellite: E-STAR Catalog number: 38079 Epoch time: 13010.72956998 Element set: 794 Inclination: 069.4784 deg RA of node: 195.7365 deg Eccentricity: 0.0673033 Arg of perigee: 342.5549 deg Mean anomaly: 015.3389 deg Mean motion: 14.31977420 rev/day Decay rate: 3.8483e-04 rev/day^2 Epoch rev: 4710 Checksum: 348
Satellite: GOLIAT Catalog number: 38085 Epoch time: 13010.68374381 Element set: 755 Inclination: 069.4821 deg RA of node: 197.0043 deg Eccentricity: 0.0680152 Arg of perigee: 343.2541 deg Mean anomaly: 014.7044 deg Mean motion: 14.30469635 rev/day Decay rate: 3.7342e-04 rev/day^2 Epoch rev: 4706 Checksum: 288
Satellite: HORYU-2 Catalog number: 38340 Epoch time: 13010.40067183 Element set: 317 Inclination: 098.1979 deg RA of node: 316.8989 deg Eccentricity: 0.0013539 Arg of perigee: 036.2617 deg Mean anomaly: 323.9543 deg Mean motion: 14.70531591 rev/day Decay rate: 1.501e-05 rev/day^2 Epoch rev: 3492 Checksum: 297
Satellite: RS-40 Catalog number: 38736 Epoch time: 13010.70730804 Element set: 158 Inclination: 082.4767 deg RA of node: 253.3226 deg Eccentricity: 0.0018612 Arg of perigee: 315.7172 deg Mean anomaly: 044.2416 deg Mean motion: 12.42649668 rev/day Decay rate: 1.0e-07 rev/day^2 Epoch rev: 2068 Checksum: 277
Satellite: PROITERES Catalog number: 38756 Epoch time: 13010.91094991 Element set: 401 Inclination: 098.2714 deg RA of node: 084.9721 deg Eccentricity: 0.0011593 Arg of perigee: 245.9742 deg Mean anomaly: 114.0257 deg Mean motion: 14.74038576 rev/day Decay rate: 5.56e-06 rev/day^2 Epoch rev: 1822 Checksum: 298
Satellite: AENEAS Catalog number: 38760 Epoch time: 13010.30862094 Element set: 0038 Inclination: 064.6736 deg RA of node: 037.6222 deg Eccentricity: 0.0216021 Arg of perigee: 256.7016 deg Mean anomaly: 100.9927 deg Mean motion: 14.80037176 rev/day Decay rate: 4.933e-05 rev/day^2 Epoch rev: 00558 Checksum: 275
Satellite: CSSWE-D Catalog number: 38761 Epoch time: 13010.31251606 Element set: 0035 Inclination: 064.6743 deg RA of node: 037.6425 deg Eccentricity: 0.0217594 Arg of perigee: 256.6983 deg Mean anomaly: 100.9785 deg Mean motion: 14.79845475 rev/day Decay rate: 4.126e-05 rev/day^2 Epoch rev: 00560 Checksum: 303
Satellite: CXBN-E Catalog number: 38762 Epoch time: 13010.30523402 Element set: 0036 Inclination: 064.6804 deg RA of node: 037.6257 deg Eccentricity: 0.0218357 Arg of perigee: 256.1531 deg Mean anomaly: 101.5196 deg Mean motion: 14.79997447 rev/day Decay rate: 5.383e-05 rev/day^2 Epoch rev: 00567 Checksum: 296
Satellite: OBJECT F Catalog number: 38763 Epoch time: 13010.30916126 Element set: 0035 Inclination: 064.6735 deg RA of node: 037.6208 deg Eccentricity: 0.0218061 Arg of perigee: 256.7365 deg Mean anomaly: 100.9342 deg Mean motion: 14.79862223 rev/day Decay rate: 3.917e-05 rev/day^2 Epoch rev: 00561 Checksum: 280
Satellite: CINEMA-G Catalog number: 38764 Epoch time: 13010.30690144 Element set: 0034 Inclination: 064.6741 deg RA of node: 037.6060 deg Eccentricity: 0.0217613 Arg of perigee: 256.7942 deg Mean anomaly: 100.8813 deg Mean motion: 14.79914111 rev/day Decay rate: 4.197e-05 rev/day^2 Epoch rev: 00557 Checksum: 278
Satellite: CP5 Catalog number: 38765 Epoch time: 13010.36660122 Element set: 0036 Inclination: 064.6738 deg RA of node: 037.3618 deg Eccentricity: 0.0216618 Arg of perigee: 256.5143 deg Mean anomaly: 101.1776 deg Mean motion: 14.80096794 rev/day Decay rate: 5.184e-05 rev/day^2 Epoch rev: 00558 Checksum: 301
Satellite: RAIKO Catalog number: 38852 Epoch time: 13009.88145362 Element set: 104 Inclination: 051.6370 deg RA of node: 172.3721 deg Eccentricity: 0.0016959 Arg of perigee: 134.3953 deg Mean anomaly: 225.8440 deg Mean motion: 15.58146824 rev/day Decay rate: 4.4688e-04 rev/day^2 Epoch rev: 1506 Checksum: 302
Satellite: FITSAT 1 Catalog number: 38853 Epoch time: 13010.48054352 Element set: 103 Inclination: 051.6345 deg RA of node: 168.8741 deg Eccentricity: 0.0014129 Arg of perigee: 152.4389 deg Mean anomaly: 207.7418 deg Mean motion: 15.59577046 rev/day Decay rate: 5.6196e-04 rev/day^2 Epoch rev: 1521 Checksum: 297
Satellite: TechEdSat Catalog number: 38854 Epoch time: 13010.45222569 Element set: 113 Inclination: 051.6276 deg RA of node: 167.9275 deg Eccentricity: 0.0013428 Arg of perigee: 159.2734 deg Mean anomaly: 200.8913 deg Mean motion: 15.62816432 rev/day Decay rate: 8.6325e-04 rev/day^2 Epoch rev: 1522 Checksum: 288
Satellite: F 1 Catalog number: 38855 Epoch time: 13010.46310631 Element set: 117 Inclination: 051.6261 deg RA of node: 167.9957 deg Eccentricity: 0.0013300 Arg of perigee: 158.5014 deg Mean anomaly: 201.6844 deg Mean motion: 15.62449500 rev/day Decay rate: 8.3376e-04 rev/day^2 Epoch rev: 1511 Checksum: 267
Satellite: WeWish Catalog number: 38856 Epoch time: 13010.46361259 Element set: 134 Inclination: 051.6392 deg RA of node: 165.7471 deg Eccentricity: 0.0013630 Arg of perigee: 162.3936 deg Mean anomaly: 197.7583 deg Mean motion: 15.70059534 rev/day Decay rate: 1.73978e-03 rev/day^2 Epoch rev: 1514 Checksum: 310
/EX
participants (1)
-
Ray Hoad